Regional Weather Roundup
Issued by NWS

Home | Current Version | Previous Version | Graphics & Text | Print | Product List | Glossary On
Versions: 1 2 3 4 5 6 7 8 9 10 11 12 13 14 15 16 17 18 19 20 21 22 23 24 25 26 27 28 29 30 31 32 33 34 35 36 37 38 39 40 41 42 43 44 45 46 47 48 49 50
000
ASUS43 KBIS 281202
RWRND

NORTH DAKOTA REGIONAL WEATHER ROUNDUP
NATIONAL WEATHER SERVICE BISMARCK ND
600 AM CST TUE FEB 28 2017

NOTE: "FAIR" INDICATES FEW OR NO CLOUDS BELOW 12,000 FEET WITH NO
SIGNIFICANT WEATHER AND/OR OBSTRUCTIONS TO VISIBILITY.


NDZ001>003-009>011-017-281300-
NORTHWEST NORTH DAKOTA

CITY           SKY/WX    TMP DP  RH WIND       PRES   REMARKS
WILLISTON      CLOUDY    11   7  84 E3        29.81F
6HR MIN TEMP:   2; 6HR MAX TEMP:  11;

MINOT          FOG        7   5  91 CALM      29.88R VSB 1/2
MINOT AFB      FOG        4   1  85 SE5       29.88S VSB 1/4 WCI  -5
$$

NDZ018>021-031>035-040>046-281300-
SOUTHWEST NORTH DAKOTA

CITY           SKY/WX    TMP DP  RH WIND       PRES   REMARKS
BISMARCK       CLOUDY    19  15  84 NE12      29.84F WCI   7
6HR MIN TEMP:  19; 6HR MAX TEMP:  20;

DICKINSON      CLOUDY    11   8  88 E5        29.75R WCI   3
GARRISON         N/A      9   6  88 NE6       29.84R WCI  -1
6HR MIN TEMP:  -4; 6HR MAX TEMP:   9;

HETTINGER ARPT CLOUDY    19  17  92 E10       29.74F FOG     WCI   7
$$

NDZ004>008-012>016-024-026-027-054-281300-
NORTHEAST NORTH DAKOTA

CITY           SKY/WX    TMP DP  RH WIND       PRES   REMARKS
GRAND FORKS    MOCLDY    10   2  69 N14       29.92F WCI  -6
GRND FRKS AFB  FLURRIES   8   2  78 N13       29.92F WCI  -8
DEVILS LAKE    FAIR      -4  -7  87 N10       29.91S WCI -21
$$

NDZ022-023-025-028>030-036>039-047>053-281300-
SOUTHEAST NORTH DAKOTA

CITY           SKY/WX    TMP DP  RH WIND       PRES   REMARKS
FARGO          CLOUDY    20  17  88 N16       29.83F WCI   6
6HR MIN TEMP:  19; 6HR MAX TEMP:  23;

JAMESTOWN      FAIR      12   9  87 N13       29.85R WCI  -3
$$





USA.gov is the U.S. government's official web portal to all federal, state and local government web resources and services.